ATLAS 5 CENTAUR DEB, 52969

Orbit data source: Space-Track

ATLAS 5 CENTAUR DEB, 52969 is space debris in HEO originally from a launch on Wed, 17 Oct 2018 UTC launched from the Air Force Eastern Test Range (AFETR). Debris objects in space refer to the collection of defunct objects orbiting the Earth. Examples of debris include non-operational satellites, rocket bodies, and fragments generated from explosions, collisions, or faulty payload assembly.

Loading next visibility...
Identifier
52969, 2018-079GT
Orbit
HEO
Country
Flag of USUS
Related business
Flag of USUnited Launch Alliance/Lockheed Martin (US)
Manufacturer
ULA Decatur
Mission
Spacecraft
Bus & Motor
Unknown
Mass
Unknown
Launch date (UTC)
2018-10-17 (8 years ago)
Launch vehicle
Unknown
Launch site
Air Force Eastern Test Range (AFETR)
Object type
Payload
Rocket body
Debris
Shape & HBR
Unknown shape, 1.1 m
Radar Cross Section
RCS unknown

Expand to show TLE details & history
Last TLE update: 2 days ago

TLE from 2 days ago
0 ATLAS 5 CENTAUR DEB
1 52969U 18079GT  26123.58367555 -.00000135  00000-0  00000-0 0  9994
2 52969  13.1181  30.9760 4559101 345.4833   4.9583  1.94553250 27909
Epoch: 2026-05-03T14:00Z
TLE epoch observation values (Epoch: 2026-05-03T14:00:29.567Z)
Latitude
-0.00007°
Longitude
-40.66811°
Altitude
8,497.997 km
Speed
6.236 km/s
True Right ascension
02h 03m 45s
True Declination
0° 00' 00"
Sunlit
Object was in daylight at epoch
Visualization orbit readout
Latitude
Unknown
Longitude
Unknown
Altitude
Unknown
Speed
Unknown
Apparent Right ascension
Unknown
Apparent Declination
Unknown
Sunlit
N/A
Visualization observer readout
Local Sidereal Time
18:45:44
Azimuth
Unknown
Elevation
Unknown
Doppler factor
Unknown
Orbital elements
Apogee altitude
33,086.83 km
Perigee altitude
8,370.363 km
Semi-major axis
27,106.734 km
Eccentricity
0.45591
Inclination
13.1181°
RAAN
30.976°
Arg. of periapsis
345.4833°
True anomaly
14.80336°
Mean anomaly
4.9583°
Eccentric anomaly
9.0812°
Mean motion
0.48633 °/min
Orbital period
740.24 mins
BSTAR
0
Loading maneuver chart data...
Computing Atmospheric mass density...

Documentation

Showing up to 5 results
|